Location: *
(49.7115°N, 15.0136°E)
Time: 08:45:59
(UTC+00:00)

YAOGAN 1 - Pass Details

Date: 27 February 2020
Orbit: 618 x 621 km, 97.9° (Epoch: 31 March)

Event Time Altitude Azimuth Distance (km) Brightness Sun altitude
Rises 17:44:30 0° 176° (S) 2,886 5.9 -11.5°
Reaches altitude 10° 17:46:43 10° 181° (S) 1,985 5.2 -11.8°
Maximum altitude 17:50:57 55° 260° (W) 750 3.4 -12.5°
Drops below altitude 10° 17:55:14 10° 338° (NNW) 2,001 5.5 -13.2°
Sets 17:57:28 0° 343° (NNW) 2,911 6.3 -13.6°
